Powrót do katalogu

STARLINK-34030

AktywnyŁącznośćVLEO
NORAD 64030·PAYLOAD·🇺🇸 United States

Wystrzelony May 16, 2025 z Vandenberg Space Force Base

Loading…

Następne Przeloty (najbliższe 24 godziny)

TLE

ŚwieżeSource: CelesTrak SupGP

Epoka: Sep 14, 2026, 21:22 UTC

1 64030C 25102J   26257.89076389 -.00037258  00000+0 -12965-2 0  2573
2 64030  70.0011 355.8490 0003597 270.0259  26.2224 15.29586813    14

Śledź STARLINK-34030 w czasie rzeczywistym z AllMySat

Download on the App Store